Location: Eagan
(44.8336°N, 93.1671°W)
Time: 09:11:13
(UTC+00:00)

BlueWalker 3 - Pass Details

Date: 09 October 2024
Orbit: 470 x 481 km, 53.2° (Epoch: 11 November)

Event Time Altitude Azimuth Distance (km) Brightness Sun altitude
Exits shadow 11:03:35 24° 295° (WNW) 1,011 3.0 -14.6°
Maximum altitude 11:05:03 34° 339° (NNW) 802 2.8 -14.3°
Drops below altitude 10° 11:08:26 10° 46° (NE) 1,635 5.3 -13.7°
Sets 11:10:44 0° 56° (ENE) 2,515 6.6 -13.3°
